SCP
0 0 0 0 0 0 0 0 0 0 0 0 0 0 0 0 0 0 0 0 0 0 0 0 0 0 0 0 0 0 0 0 0 0 0 0 0 0 0 0 0 0 0 0 0 0 0 0 1 0 0 0 0 0
0 0 0 0 0 0 0 0 0 0 0 0 0 0 0 0 0 0 0 0 0 0 0 0 0 0 0 0 0 0 0 0 0 0 0 0 0 0 0 0 0 0 0 0 0 0 0 0 0 0 0 0 0 0
0 0 -0 0 0 0 0 0 0 0 0 0 0 0 0 0 0 0 -0 0 0 0 0 0 0 0 0 -0 0 0 0 0 0 0 0 0 0 0 0 0 0 0 0 0 0 0 0 0 0 0 0 0 0 0
0 0 0 0 0 0 0 0 0 0 0 0 0 0 0 0 0 0 -0 -0 0 0 0 0 0 0 0 0 0 0 0 0 0 0 0 0 0 0 0 0 0 0 0 0 0 0 0 0 0 0 0 0 0 0
0 0 0 0 0 0 0 0 0 0 0 0 0 0 0 0 0 -0 -0 -0 -0 0 0 0 -0 0 0 0 0 0 -0 0 0 0 0 0 0 0 0 0 0 0 0 0 0 0 0 0 0 0 0 0 0 0
-0 0 0 0 0 0 0 0 0 0 0 0 0 0 0 0 0 0 0 -0 -0 -0 0 0 0 0 0 0 0 0 0 0 0 0 0 0 0 0 0 0 0 0 0 0 0 0 0 0 0 0 0 0 0 0
-0 0 0 0 0 0 0 0 0 0 0 0 0 0 0 0 0 -0 -0 -0 0 0 0 0 0 0 0 0 0 0 0 0 0 0 0 0 0 0 -0 0 0 0 0 0 0 0 0 0 0 0 0 0 0 0
-0 0 0 0 0 0 0 0 0 0 0 0 0 0 0 0 0 0 -0 0 -0 0 0 0 0 0 0 0 0 0 0 0 0 0 0 0 0 0 0 0 0 0 0 0 0 0 0 0 0 0 0 0 0 0
-0 0 0 0 0 0 0 0 0 0 0 0 0 0 0 0 0 0 0 0 0 0 0 0 0 0 0 0 -0 0 0 0 0 0 0 0 0 0 0 0 0 0 0 0 0 0 0 0 -0 0 0 0 0 0
-0 -0 0 0 0 0 0 0 0 0 0 0 0 0 0 0 0 -0 0 0 0 0 0 0 0 0 0 0 0 0 0 0 0 0 0 0 0 0 0 0 0 0 0 0 0 0 0 0 0 0 0 0 0 0
0 -0 0 0 0 0 0 0 0 0 0 0 0 0 0 0 0 0 0 0 0 0 0 0 0 0 0 0 0 0 0 0 0 0 0 0 0 0 0 0 0 0 0 0 0 0 0 0 0 0 0 0 0 0
0 0 0 0 0 0 0 0 0 0 0 0 0 0 0 0 0 0 0 0 0 0 0 0 0 0 -0 0 0 0 0 0 0 0 0 0 0 0 0 0 0 0 0 0 0 0 0 0 0 0 0 0 0 0
0 0 0 0 0 0 0 0 0 0 0 0 0 0 0 0 0 0 0 0 0 0 0 0 -0 -0 0 0 0 0 0 -0 0 -0 -0 0 0 0 0 0 0 0 0 0 0 0 0 0 0 0 0 0 0 0
0 0 0 0 0 0 0 0 0 0 0 0 0 0 0 0 0 0 0 0 0 0 0 0 -0 0 0 0 0 -0 -0 -0 -0 -0 -0 0 0 0 0 0 0 0 0 0 0 0 0 0 0 0 0 0 0 0
0 0 0 0 0 0 0 0 0 0 0 0 0 0 0 0 0 0 0 0 0 0 0 0 0 0 0 -0 -0 0 -0 -0 -0 -0 0 0 -0 -0 0 0 0 0 0 0 0 0 0 0 0 0 0 0 0 0
0 0 0 0 0 0 0 0 0 0 0 0 0 0 0 0 0 0 0 0 0 0 -0 -0 -0 0 -0 -0 -0 -0 -0 -0 -0 -0 0 -0 -0 0 -0 0 -0 0 0 0 0 0 0 0 0 0 0 0 0 0
0 0 0 0 0 0 0 0 0 0 0 0 0 0 0 0 0 0 0 0 0 0 0 -0 -0 -0 -0 0 -0 -0 -0 -0 -0 0 0 0 -0 -0 -0 -0 -0 0 0 0 0 0 0 0 0 0 0 0 0 0
0 0 0 0 0 0 0 0 0 0 0 0 0 0 0 0 0 0 0 -0 -0 0 0 -0 -0 -0 0 0 0 -0 0 -0 -0 0 0 -0 -0 -0 -0 0 -0 0 -0 0 -0 0 0 0 0 0 -0 0 0 0
0 0 0 0 0 0 0 0 0 0 0 0 0 0 0 0 -0 -0 -0 -0 -0 -0 0 0 0 0 0 0 -0 0 0 0 0 -0 -0 -0 -0 0 -0 -0 -0 0 0 0 0 0 0 0 0 0 0 0 0 0
0 0 0 0 0 0 0 0 0 0 0 0 0 0 0 -0 -0 -0 0 -0 -0 -0 -0 0 0 0 0 0 0 -0 -0 -0 -0 -0 0 0 0 0 -0 -0 -0 -0 0 0 0 0 0 -0 0 0 0 0 0 0
0 0 0 0 0 0 0 0 0 0 0 0 0 -0 -0 -0 -0 -0 -0 -0 -0 0 -0 0 0 -0 -0 -0 -0 -0 -0 -0 0 -0 0 0 0 0 -0 -0 -0 0 0 0 0 0 0 0 0 -0 0 0 0 0
0 0 0 0 0 0 0 0 0 0 0 -0 -0 0 0 -0 -0 0 0 -0 -0 -0 -0 -0 0 0 -0 -0 -0 -0 0 -0 -0 -0 0 0 0 0 0 0 0 -0 0 0 0 0 0 0 0 0 -0 0 -0 -0
0 0 0 0 0 0 0 0 0 0 0 0 0 0 0 0 0 0 0 0 0 0 0 0 0 0 0 -0 -0 -0 -0 -0 0 0 0 0 0 0 0 -0 0 0 0 0 0 0 0 0 -0 -0 -0 -0 -0 -0
0 0 0 0 0 0 0 0 0 0 0 0 0 0 0 0 0 0 0 0 0 0 0 0 0 0 -0 0 0 0 0 0 0 0 0 0 0 0 0 0 0 0 0 0 0 -0 -0 -0 -0 -0 -0 -0 0 -0
0 0 0 0 0 0 0 0 0 0 0 0 0 0 0 0 0 0 0 0 0 0 0 0 0 0 0 0 0 0 0 0 0 0 0 0 0 0 0 0 0 0 0 -0 -0 -0 -0 -0 -0 0 0 0 -0 0
0 0 0 0 0 0 0 0 0 0 0 0 0 0 0 0 0 0 0 0 0 0 0 0 0 0 0 0 0 0 0 0 0 0 0 0 0 -0 -0 -0 -0 0 0 -0 0 0 0 0 0 0 0 0 0 0
0 0 0 0 0 0 0 0 0 0 0 0 0 0 0 0 0 0 0 0 0 0 0 0 0 0 0 0 0 0 0 0 0 0 0 0 0 0 0 -0 -0 -0 -0 -0 -0 -0 -0 -0 0 -0 0 -0 -0 0
0 0 0 0 0 0 0 0 0 0 0 0 0 0 0 0 0 0 0 0 0 0 0 0 0 0 0 0 0 0 0 0 0 0 0 0 0 0 -0 -0 -0 0 -0 -0 -0 -0 -0 -0 -0 0 -0 -0 0 0
0 0 0 0 0 0 0 0 0 0 0 0 0 0 0 0 0 0 0 0 0 0 -0 -0 0 0 0 0 0 0 0 -0 -0 -0 -0 -0 0 -0 0 -0 -0 -0 -0 0 -0 0 0 -0 -0 -0 -0 0 0 0
0 0 0 0 0 0 0 0 0 0 0 0 0 0 0 0 0 0 0 0 0 0 0 0 0 -0 -0 -0 -0 -0 0 -0 -0 0 0 -0 -0 -0 -0 -0 -0 -0 -0 0 0 0 -0 -0 -0 0 0 0 0 0
0 0 0 0 0 0 0 0 0 0 0 0 0 0 0 0 0 0 -0 0 -0 -0 -0 -0 -0 -0 0 0 0 0 -0 -0 -0 -0 -0 -0 -0 -0 -0 -0 -0 0 0 0 0 -0 -0 -0 0 0 0 0 0 0
0 0 0 0 0 0 0 0 0 0 0 0 0 0 0 -0 0 0 -0 -0 -0 0 -0 0 0 -0 -0 -0 -0 -0 -0 -0 -0 -0 -0 0 0 0 0 0 0 0 -0 -0 -0 -0 -0 0 0 0 0 0 0 0
0 0 0 0 0 0 0 0 0 0 0 0 0 0 -0 -0 -0 -0 -0 -0 -0 -0 -0 -0 -0 -0 -0 -0 0 0 0 -0 -0 0 0 0 0 0 0 0 0 -0 -0 -0 0 0 0 0 0 0 0 0 0 0
Wind_Speed_500mb
21 22 23 21 25 29 28 24 22 21 21 21 21 21 21 19 14 5 9 11 8 8 21 20 18 16 8 3 3 10 8 6 8 6 2 3 3 2 3 3 2 10 11 6 4 5 11 15 13 8 4 2 16 26
20 14 18 22 30 28 24 21 20 20 20 22 23 20 20 19 19 9 9 15 16 16 18 23 34 31 33 24 12 6 3 5 3 5 0 1 3 4 3 4 3 2 7 7 12 9 7 13 16 20 15 9 12 29
23 23 23 24 30 24 21 18 16 18 19 20 20 19 18 21 21 18 8 9 13 14 23 15 2 6 25 35 27 10 4 3 3 5 5 3 3 3 1 5 2 5 3 3 3 5 7 15 17 14 11 10 13 30
24 24 22 25 26 23 21 17 17 18 20 20 20 18 18 19 18 16 10 2 7 8 6 6 4 7 13 20 24 38 7 2 4 8 2 2 3 2 3 6 4 7 4 3 7 11 9 11 5 9 4 7 17 34
28 25 23 24 25 25 22 19 18 17 18 18 18 18 18 16 14 3 7 6 9 9 7 21 6 12 6 4 9 12 42 27 10 8 3 3 5 4 5 4 7 10 10 7 9 12 6 5 5 4 5 11 16 20
27 25 26 26 25 24 22 20 19 18 17 16 17 17 16 13 6 4 2 2 6 13 8 8 11 3 10 3 11 18 25 30 14 5 6 3 2 3 3 6 8 10 5 7 7 7 9 2 8 10 11 9 13 15
25 24 24 26 21 21 18 18 19 18 16 14 14 13 12 6 4 4 3 4 4 7 8 13 21 8 12 4 7 13 19 16 14 8 8 7 6 11 4 7 9 19 25 14 4 8 5 3 6 3 8 12 11 16
27 25 24 20 18 16 16 16 18 17 14 12 9 5 4 9 9 9 5 4 4 6 4 3 9 14 15 5 2 7 11 19 16 13 6 7 2 6 5 23 31 34 23 25 7 10 12 16 13 6 13 13 20 27
31 28 24 19 16 15 15 15 15 12 9 7 4 6 5 6 5 5 6 3 1 4 7 3 4 5 16 7 4 2 4 1 6 9 12 11 3 7 7 27 24 26 23 21 22 15 11 14 15 12 15 16 20 26
32 28 23 19 16 14 14 13 11 4 3 7 10 4 4 3 3 4 3 2 5 4 4 7 6 6 9 11 5 7 0 3 2 8 9 6 7 7 22 23 24 25 25 18 16 20 19 21 22 21 17 18 23 23
30 24 24 20 17 13 11 9 6 3 8 9 6 4 2 4 2 2 2 4 4 5 10 11 12 6 3 1 5 3 3 2 3 4 6 1 2 10 28 30 24 18 17 20 29 32 32 28 24 25 24 22 26 26
30 26 25 21 17 13 9 6 2 6 6 6 2 2 4 2 2 2 3 3 4 5 7 6 6 10 4 4 1 3 3 3 8 2 4 6 4 17 36 36 31 22 15 17 24 41 40 38 30 28 29 29 38 36
31 28 24 20 16 13 8 4 3 8 10 4 3 3 1 2 7 5 4 3 4 12 5 7 7 4 3 3 4 2 2 9 11 3 5 3 4 31 43 43 39 28 23 22 18 24 40 41 32 33 37 34 36 40
33 29 25 20 17 13 8 6 5 11 7 3 4 4 5 4 7 6 6 4 6 7 21 25 9 3 3 3 2 2 7 3 5 2 4 4 29 48 51 46 43 40 31 24 19 20 29 38 31 30 27 23 32 41
34 28 25 21 18 13 10 8 7 12 5 3 4 4 8 11 9 14 15 8 2 10 14 8 4 5 4 3 3 5 5 6 3 5 3 25 43 49 54 50 42 39 33 29 19 18 27 33 27 19 17 21 23 24
33 28 24 22 18 14 11 10 10 6 3 3 6 5 5 3 9 9 3 2 12 16 8 3 4 3 3 3 4 7 4 1 4 4 30 40 44 47 46 38 34 31 29 22 18 15 29 30 25 21 23 26 27 22
33 19 25 22 19 15 13 12 6 2 2 4 5 10 17 17 15 5 5 11 19 11 1 4 4 8 3 5 5 2 4 4 26 44 47 46 51 47 37 27 17 15 10 7 9 24 29 29 30 24 24 24 18 17
28 28 25 23 19 18 14 5 2 3 5 4 5 15 8 7 3 6 13 18 15 8 4 2 2 2 5 5 4 4 15 33 41 46 56 56 41 27 14 6 6 4 9 14 28 38 45 43 37 29 10 22 23 18
32 28 26 23 19 7 4 3 1 3 3 8 7 16 4 4 11 14 17 14 18 12 7 4 3 5 5 4 10 33 40 42 53 61 48 30 20 9 9 9 13 17 25 32 43 47 39 23 3 12 23 25 29 25
26 24 23 18 7 3 3 3 0 4 4 5 8 13 7 5 16 14 15 16 18 6 8 5 5 4 8 33 39 43 48 48 50 24 9 11 24 23 26 27 30 35 40 42 43 40 41 41 38 36 32 28 29 31
25 24 19 11 6 5 3 3 3 3 4 2 9 13 9 11 8 15 14 21 6 3 6 7 15 30 31 32 34 35 32 11 3 10 21 30 33 39 38 42 48 53 59 55 52 48 44 42 38 36 38 47 55 46
27 21 10 7 5 4 3 8 3 4 3 5 8 9 4 6 8 10 21 5 8 7 9 23 31 28 26 20 13 14 21 25 26 35 41 41 49 52 50 49 52 55 58 57 57 58 54 47 46 49 53 49 41 36
18 10 6 6 5 6 3 7 1 7 6 9 7 4 4 7 12 17 5 8 10 22 27 19 12 9 31 32 24 32 31 31 41 46 51 55 56 55 57 60 61 64 63 59 55 53 52 48 45 43 40 38 39 36
5 4 4 4 6 3 4 7 6 5 6 5 2 3 6 11 18 9 4 12 29 32 23 32 42 32 35 36 40 40 44 53 60 63 67 72 70 65 63 62 59 57 55 50 47 48 47 47 46 45 42 42 40 38
2 5 3 3 5 5 6 5 5 3 3 2 4 5 8 12 6 6 6 21 44 44 39 41 42 39 44 44 47 49 55 58 64 64 59 59 60 61 59 54 51 52 50 49 48 46 45 44 41 39 37 35 34 32
6 3 4 2 2 2 2 3 3 4 4 5 6 6 10 5 8 7 12 36 34 42 46 42 47 44 43 44 44 45 44 46 48 55 54 53 52 50 50 50 48 44 36 37 39 37 34 31 30 31 33 32 28 28
2 1 2 1 2 1 1 1 2 3 5 4 1 2 4 8 10 10 21 31 31 39 35 43 49 48 47 44 41 37 34 34 37 43 40 34 31 31 33 40 45 40 35 31 30 31 35 37 38 35 31 28 24 19
3 3 3 3 2 3 1 3 3 2 4 4 6 3 5 7 2 3 27 39 46 46 46 41 43 46 45 43 38 39 42 41 40 40 43 43 40 37 34 34 33 29 27 26 26 25 24 26 23 18 14 10 6 3
2 2 5 2 1 2 2 2 4 4 8 5 5 4 10 21 17 5 27 36 44 43 42 40 37 36 37 34 34 32 28 21 21 29 33 35 31 30 25 24 24 23 22 19 18 17 15 11 7 5 5 7 14 12
7 11 3 7 5 5 8 9 17 21 18 14 13 21 22 22 21 25 27 29 25 21 21 24 27 28 32 34 35 34 32 32 34 35 37 34 28 26 25 25 22 18 14 10 6 2 2 4 6 7 10 12 11 6
13 15 10 14 8 31 40 41 38 37 36 34 39 42 36 35 33 28 27 27 24 21 21 19 20 21 21 22 24 25 28 28 27 25 22 22 22 17 12 11 8 4 2 1 5 10 4 6 8 10 8 8 9 11
33 23 12 11 21 37 42 44 38 37 44 48 41 45 39 29 14 12 24 27 26 28 27 24 23 27 24 21 21 19 17 16 14 13 13 8 3 5 6 7 6 3 5 5 2 5 8 9 10 11 12 13 16 19
17 23 27 19 15 20 19 15 18 14 30 34 31 29 24 14 8 14 19 21 21 19 21 24 26 24 18 15 16 17 15 13 11 11 8 5 4 6 8 9 9 8 7 8 9 9 9 10 11 13 15 15 13 15
Wind_Direction_500mb
287 283 300 310 324 329 327 329 331 336 336 350 353 353 355 1 4 278 270 281 299 276 274 247 241 232 219 229 150 325 352 345 2 67 125 267 204 299 17 339 184 176 146 187 86 114 264 6 312 193 256 138 150 145
286 282 302 311 319 321 322 323 328 341 346 348 348 350 352 354 356 342 254 270 279 281 272 272 268 251 241 243 275 312 274 265 337 84 76 212 338 2 145 232 354 257 182 194 181 216 300 310 274 296 293 288 172 161
265 284 290 304 318 316 316 318 326 331 337 337 341 346 348 345 344 341 327 281 301 297 300 293 336 148 227 232 234 237 254 300 349 356 175 169 56 115 194 249 287 328 151 170 42 237 298 290 305 315 311 237 207 183
261 274 287 297 311 308 312 309 315 323 325 329 336 339 342 336 335 334 340 16 344 310 294 253 236 281 206 197 216 227 224 128 9 339 356 135 151 56 254 266 220 207 135 179 272 274 279 279 288 351 49 134 155 167
258 272 282 298 306 299 305 297 301 313 316 327 332 333 335 336 337 20 69 61 22 355 285 298 48 85 100 246 222 206 207 230 301 338 15 262 266 75 336 341 262 188 177 169 229 221 176 216 174 96 115 122 139 156
249 260 280 288 296 292 295 291 294 307 315 321 322 323 330 336 4 106 117 54 31 7 340 319 334 107 34 307 237 216 205 225 233 253 244 257 289 100 77 278 289 348 337 268 302 252 227 198 169 215 235 220 186 186
249 265 277 289 285 289 286 287 294 304 310 312 314 319 329 348 123 68 64 9 16 1 349 310 326 354 14 83 178 198 212 208 217 225 230 217 221 200 186 219 256 351 348 342 33 55 3 167 108 226 212 172 184 175
249 264 281 281 281 281 283 289 298 307 307 304 298 309 59 79 99 77 40 329 3 357 334 343 280 328 14 16 83 190 199 199 213 222 198 205 218 172 264 265 277 273 293 298 275 295 322 322 292 238 230 179 183 181
240 258 271 266 274 275 283 295 305 311 313 293 198 149 97 76 63 14 3 355 209 323 319 302 304 277 356 10 315 254 215 171 213 201 209 163 177 211 274 319 341 289 251 294 245 219 255 287 298 269 231 198 198 183
239 250 251 252 266 268 280 297 307 304 114 132 139 140 133 76 71 57 8 346 211 228 244 245 249 270 337 347 342 340 160 237 251 242 147 154 223 171 6 359 344 316 293 273 205 214 239 256 262 255 257 248 210 206
233 239 232 242 255 258 272 295 302 187 160 160 164 149 171 157 133 230 239 208 212 239 217 238 234 266 309 64 259 337 289 273 283 275 132 248 34 351 354 356 1 336 303 270 252 254 261 270 281 252 237 231 226 227
224 226 225 228 241 243 254 283 238 173 156 152 165 146 150 190 229 257 243 177 220 257 212 208 278 243 283 274 283 277 272 33 247 68 155 174 163 11 360 347 348 342 320 290 267 257 255 254 263 257 236 242 234 224
215 211 216 215 224 224 232 239 175 176 178 169 159 145 111 181 46 228 214 184 328 326 333 348 313 296 259 273 257 46 288 237 318 178 161 90 285 346 348 341 338 332 328 313 299 263 242 239 246 251 251 253 231 214
205 202 206 206 208 208 210 195 174 166 154 171 158 351 156 274 244 207 197 219 225 258 315 318 292 319 317 347 236 292 253 353 280 172 75 296 331 331 331 334 330 324 318 313 304 282 233 218 227 246 242 228 210 205
189 189 192 194 194 192 191 183 171 171 169 164 159 217 222 247 276 286 281 283 344 325 328 317 327 341 304 314 229 317 271 253 29 43 298 332 323 318 320 324 321 317 306 297 294 274 208 204 209 224 201 188 185 194
172 177 183 181 179 177 174 168 166 166 194 205 226 274 267 251 284 347 22 94 5 346 324 357 41 351 276 318 272 227 239 268 88 280 306 313 314 313 314 315 316 307 299 295 294 218 182 190 191 176 171 168 170 178
160 162 167 165 163 163 156 148 156 186 246 241 270 289 295 280 274 293 10 10 349 349 357 105 101 219 319 265 256 265 341 332 310 316 320 317 315 311 310 317 318 302 313 314 157 156 163 156 143 135 137 145 139 139
151 148 151 150 149 143 143 144 157 236 266 273 311 346 56 42 43 31 359 1 351 327 297 254 213 201 234 252 273 355 315 319 319 313 318 322 312 305 304 275 302 356 93 119 144 146 139 131 121 91 108 137 131 147
141 141 139 140 141 135 140 136 146 300 309 343 355 17 14 352 11 351 334 326 318 264 274 229 215 223 239 275 318 317 313 309 310 316 320 317 321 158 153 132 121 116 118 127 142 138 134 114 64 162 171 132 131 130
140 135 133 130 118 108 119 126 133 300 352 346 356 348 336 348 331 321 325 323 319 228 204 223 232 214 294 303 306 304 309 315 320 316 23 85 131 130 128 121 119 121 118 116 117 121 119 117 117 118 120 117 118 120
130 129 122 110 75 58 82 53 105 39 347 316 352 357 317 321 339 342 326 340 335 278 262 263 283 300 303 303 305 306 311 315 30 97 105 105 120 120 119 117 114 111 109 108 108 106 103 102 105 107 110 114 119 110
126 129 107 61 45 42 69 22 6 351 346 7 352 328 322 341 348 331 329 333 293 277 280 295 297 297 314 335 62 101 106 111 111 118 118 120 108 110 116 117 116 111 110 109 110 108 104 105 110 112 109 111 109 114
125 113 67 40 33 32 37 356 40 21 25 332 355 6 25 358 337 350 360 315 277 320 326 305 322 59 96 114 117 113 108 107 105 106 110 109 107 109 111 110 109 108 108 108 108 108 107 110 111 113 112 111 107 103
72 63 48 48 29 332 339 33 14 15 0 359 16 33 13 355 345 15 315 297 330 27 78 108 110 107 107 106 104 102 104 109 108 107 109 108 105 105 105 106 104 105 106 106 104 102 104 106 104 110 109 105 107 109
49 25 36 24 31 34 36 351 0 22 12 350 63 22 4 351 12 4 326 323 360 54 94 114 111 106 105 105 106 106 105 102 100 103 107 104 104 102 100 99 100 103 106 105 106 105 103 103 102 102 103 106 111 111
78 39 29 50 35 59 319 355 37 2 346 71 44 16 355 12 30 4 321 344 6 77 104 109 110 112 103 104 101 105 111 102 98 101 107 110 108 105 105 105 104 100 98 103 107 104 106 106 105 102 99 97 102 109
98 217 23 359 173 141 141 319 357 6 48 69 132 16 15 51 12 316 354 26 54 113 115 107 105 109 106 105 104 108 120 122 109 103 105 98 91 94 104 106 103 102 108 102 97 99 100 103 103 105 107 109 110 113
153 163 154 144 186 189 237 209 182 76 88 143 139 44 65 81 271 48 64 77 86 93 110 111 107 105 101 100 101 106 108 110 110 110 107 96 92 98 99 101 102 106 107 102 98 100 106 112 114 107 103 107 138 200
89 125 145 152 153 227 284 28 49 75 129 120 113 105 113 135 153 99 103 122 115 110 108 108 107 103 102 105 110 108 99 101 127 122 110 105 107 102 103 108 108 107 103 98 100 98 115 130 129 91 55 2 351 343
51 105 80 58 45 337 17 97 118 118 115 119 100 109 102 109 118 117 120 110 123 134 123 117 116 113 109 108 108 107 105 98 92 101 112 116 109 103 96 92 97 113 114 121 119 92 326 273 270 324 328 322 307 274
77 70 62 61 36 53 85 98 107 115 120 122 122 115 111 111 113 115 119 116 110 117 121 125 129 133 134 130 120 118 116 110 105 101 110 120 117 104 82 77 72 71 82 48 290 267 258 313 276 286 310 303 292 299
80 83 65 45 66 86 88 84 86 87 101 105 108 121 123 115 85 113 134 125 111 102 102 107 114 124 120 116 113 110 114 115 111 102 80 83 74 51 32 359 359 358 324 344 319 281 301 307 302 290 290 298 310 315
74 64 93 95 90 83 94 81 79 72 95 103 106 114 113 100 83 152 164 147 127 116 110 106 105 106 116 111 100 96 99 112 119 111 107 105 64 38 24 15 12 359 344 331 321 309 296 291 296 302 314 325 334 340
Wind_Speed_850mb
21 22 23 21 25 29 28 24 22 21 21 21 21 21 21 19 14 5 9 11 8 8 21 20 18 16 8 3 3 10 8 6 8 6 2 3 3 2 3 3 2 10 11 6 4 5 11 15 13 8 4 2 16 26
20 14 18 22 30 28 24 21 20 20 20 22 23 20 20 19 19 9 9 15 16 16 18 23 34 31 33 24 12 6 3 5 3 5 0 1 3 4 3 4 3 2 7 7 12 9 7 13 16 20 15 9 12 29
23 23 23 24 30 24 21 18 16 18 19 20 20 19 18 21 21 18 8 9 13 14 23 15 2 6 25 35 27 10 4 3 3 5 5 3 3 3 1 5 2 5 3 3 3 5 7 15 17 14 11 10 13 30
24 24 22 25 26 23 21 17 17 18 20 20 20 18 18 19 18 16 10 2 7 8 6 6 4 7 13 20 24 38 7 2 4 8 2 2 3 2 3 6 4 7 4 3 7 11 9 11 5 9 4 7 17 34
28 25 23 24 25 25 22 19 18 17 18 18 18 18 18 16 14 3 7 6 9 9 7 21 6 12 6 4 9 12 42 27 10 8 3 3 5 4 5 4 7 10 10 7 9 12 6 5 5 4 5 11 16 20
27 25 26 26 25 24 22 20 19 18 17 16 17 17 16 13 6 4 2 2 6 13 8 8 11 3 10 3 11 18 25 30 14 5 6 3 2 3 3 6 8 10 5 7 7 7 9 2 8 10 11 9 13 15
25 24 24 26 21 21 18 18 19 18 16 14 14 13 12 6 4 4 3 4 4 7 8 13 21 8 12 4 7 13 19 16 14 8 8 7 6 11 4 7 9 19 25 14 4 8 5 3 6 3 8 12 11 16
27 25 24 20 18 16 16 16 18 17 14 12 9 5 4 9 9 9 5 4 4 6 4 3 9 14 15 5 2 7 11 19 16 13 6 7 2 6 5 23 31 34 23 25 7 10 12 16 13 6 13 13 20 27
31 28 24 19 16 15 15 15 15 12 9 7 4 6 5 6 5 5 6 3 1 4 7 3 4 5 16 7 4 2 4 1 6 9 12 11 3 7 7 27 24 26 23 21 22 15 11 14 15 12 15 16 20 26
32 28 23 19 16 14 14 13 11 4 3 7 10 4 4 3 3 4 3 2 5 4 4 7 6 6 9 11 5 7 0 3 2 8 9 6 7 7 22 23 24 25 25 18 16 20 19 21 22 21 17 18 23 23
30 24 24 20 17 13 11 9 6 3 8 9 6 4 2 4 2 2 2 4 4 5 10 11 12 6 3 1 5 3 3 2 3 4 6 1 2 10 28 30 24 18 17 20 29 32 32 28 24 25 24 22 26 26
30 26 25 21 17 13 9 6 2 6 6 6 2 2 4 2 2 2 3 3 4 5 7 6 6 10 4 4 1 3 3 3 8 2 4 6 4 17 36 36 31 22 15 17 24 41 40 38 30 28 29 29 38 36
31 28 24 20 16 13 8 4 3 8 10 4 3 3 1 2 7 5 4 3 4 12 5 7 7 4 3 3 4 2 2 9 11 3 5 3 4 31 43 43 39 28 23 22 18 24 40 41 32 33 37 34 36 40
33 29 25 20 17 13 8 6 5 11 7 3 4 4 5 4 7 6 6 4 6 7 21 25 9 3 3 3 2 2 7 3 5 2 4 4 29 48 51 46 43 40 31 24 19 20 29 38 31 30 27 23 32 41
34 28 25 21 18 13 10 8 7 12 5 3 4 4 8 11 9 14 15 8 2 10 14 8 4 5 4 3 3 5 5 6 3 5 3 25 43 49 54 50 42 39 33 29 19 18 27 33 27 19 17 21 23 24
33 28 24 22 18 14 11 10 10 6 3 3 6 5 5 3 9 9 3 2 12 16 8 3 4 3 3 3 4 7 4 1 4 4 30 40 44 47 46 38 34 31 29 22 18 15 29 30 25 21 23 26 27 22
33 19 25 22 19 15 13 12 6 2 2 4 5 10 17 17 15 5 5 11 19 11 1 4 4 8 3 5 5 2 4 4 26 44 47 46 51 47 37 27 17 15 10 7 9 24 29 29 30 24 24 24 18 17
28 28 25 23 19 18 14 5 2 3 5 4 5 15 8 7 3 6 13 18 15 8 4 2 2 2 5 5 4 4 15 33 41 46 56 56 41 27 14 6 6 4 9 14 28 38 45 43 37 29 10 22 23 18
32 28 26 23 19 7 4 3 1 3 3 8 7 16 4 4 11 14 17 14 18 12 7 4 3 5 5 4 10 33 40 42 53 61 48 30 20 9 9 9 13 17 25 32 43 47 39 23 3 12 23 25 29 25
26 24 23 18 7 3 3 3 0 4 4 5 8 13 7 5 16 14 15 16 18 6 8 5 5 4 8 33 39 43 48 48 50 24 9 11 24 23 26 27 30 35 40 42 43 40 41 41 38 36 32 28 29 31
25 24 19 11 6 5 3 3 3 3 4 2 9 13 9 11 8 15 14 21 6 3 6 7 15 30 31 32 34 35 32 11 3 10 21 30 33 39 38 42 48 53 59 55 52 48 44 42 38 36 38 47 55 46
27 21 10 7 5 4 3 8 3 4 3 5 8 9 4 6 8 10 21 5 8 7 9 23 31 28 26 20 13 14 21 25 26 35 41 41 49 52 50 49 52 55 58 57 57 58 54 47 46 49 53 49 41 36
18 10 6 6 5 6 3 7 1 7 6 9 7 4 4 7 12 17 5 8 10 22 27 19 12 9 31 32 24 32 31 31 41 46 51 55 56 55 57 60 61 64 63 59 55 53 52 48 45 43 40 38 39 36
5 4 4 4 6 3 4 7 6 5 6 5 2 3 6 11 18 9 4 12 29 32 23 32 42 32 35 36 40 40 44 53 60 63 67 72 70 65 63 62 59 57 55 50 47 48 47 47 46 45 42 42 40 38
2 5 3 3 5 5 6 5 5 3 3 2 4 5 8 12 6 6 6 21 44 44 39 41 42 39 44 44 47 49 55 58 64 64 59 59 60 61 59 54 51 52 50 49 48 46 45 44 41 39 37 35 34 32
6 3 4 2 2 2 2 3 3 4 4 5 6 6 10 5 8 7 12 36 34 42 46 42 47 44 43 44 44 45 44 46 48 55 54 53 52 50 50 50 48 44 36 37 39 37 34 31 30 31 33 32 28 28
2 1 2 1 2 1 1 1 2 3 5 4 1 2 4 8 10 10 21 31 31 39 35 43 49 48 47 44 41 37 34 34 37 43 40 34 31 31 33 40 45 40 35 31 30 31 35 37 38 35 31 28 24 19
3 3 3 3 2 3 1 3 3 2 4 4 6 3 5 7 2 3 27 39 46 46 46 41 43 46 45 43 38 39 42 41 40 40 43 43 40 37 34 34 33 29 27 26 26 25 24 26 23 18 14 10 6 3
2 2 5 2 1 2 2 2 4 4 8 5 5 4 10 21 17 5 27 36 44 43 42 40 37 36 37 34 34 32 28 21 21 29 33 35 31 30 25 24 24 23 22 19 18 17 15 11 7 5 5 7 14 12
7 11 3 7 5 5 8 9 17 21 18 14 13 21 22 22 21 25 27 29 25 21 21 24 27 28 32 34 35 34 32 32 34 35 37 34 28 26 25 25 22 18 14 10 6 2 2 4 6 7 10 12 11 6
13 15 10 14 8 31 40 41 38 37 36 34 39 42 36 35 33 28 27 27 24 21 21 19 20 21 21 22 24 25 28 28 27 25 22 22 22 17 12 11 8 4 2 1 5 10 4 6 8 10 8 8 9 11
33 23 12 11 21 37 42 44 38 37 44 48 41 45 39 29 14 12 24 27 26 28 27 24 23 27 24 21 21 19 17 16 14 13 13 8 3 5 6 7 6 3 5 5 2 5 8 9 10 11 12 13 16 19
17 23 27 19 15 20 19 15 18 14 30 34 31 29 24 14 8 14 19 21 21 19 21 24 26 24 18 15 16 17 15 13 11 11 8 5 4 6 8 9 9 8 7 8 9 9 9 10 11 13 15 15 13 15
Wind_Direction_850mb
287 283 300 310 324 329 327 329 331 336 336 350 353 353 355 1 4 278 270 281 299 276 274 247 241 232 219 229 150 325 352 345 2 67 125 267 204 299 17 339 184 176 146 187 86 114 264 6 312 193 256 138 150 145
286 282 302 311 319 321 322 323 328 341 346 348 348 350 352 354 356 342 254 270 279 281 272 272 268 251 241 243 275 312 274 265 337 84 76 212 338 2 145 232 354 257 182 194 181 216 300 310 274 296 293 288 172 161
265 284 290 304 318 316 316 318 326 331 337 337 341 346 348 345 344 341 327 281 301 297 300 293 336 148 227 232 234 237 254 300 349 356 175 169 56 115 194 249 287 328 151 170 42 237 298 290 305 315 311 237 207 183
261 274 287 297 311 308 312 309 315 323 325 329 336 339 342 336 335 334 340 16 344 310 294 253 236 281 206 197 216 227 224 128 9 339 356 135 151 56 254 266 220 207 135 179 272 274 279 279 288 351 49 134 155 167
258 272 282 298 306 299 305 297 301 313 316 327 332 333 335 336 337 20 69 61 22 355 285 298 48 85 100 246 222 206 207 230 301 338 15 262 266 75 336 341 262 188 177 169 229 221 176 216 174 96 115 122 139 156
249 260 280 288 296 292 295 291 294 307 315 321 322 323 330 336 4 106 117 54 31 7 340 319 334 107 34 307 237 216 205 225 233 253 244 257 289 100 77 278 289 348 337 268 302 252 227 198 169 215 235 220 186 186
249 265 277 289 285 289 286 287 294 304 310 312 314 319 329 348 123 68 64 9 16 1 349 310 326 354 14 83 178 198 212 208 217 225 230 217 221 200 186 219 256 351 348 342 33 55 3 167 108 226 212 172 184 175
249 264 281 281 281 281 283 289 298 307 307 304 298 309 59 79 99 77 40 329 3 357 334 343 280 328 14 16 83 190 199 199 213 222 198 205 218 172 264 265 277 273 293 298 275 295 322 322 292 238 230 179 183 181
240 258 271 266 274 275 283 295 305 311 313 293 198 149 97 76 63 14 3 355 209 323 319 302 304 277 356 10 315 254 215 171 213 201 209 163 177 211 274 319 341 289 251 294 245 219 255 287 298 269 231 198 198 183
239 250 251 252 266 268 280 297 307 304 114 132 139 140 133 76 71 57 8 346 211 228 244 245 249 270 337 347 342 340 160 237 251 242 147 154 223 171 6 359 344 316 293 273 205 214 239 256 262 255 257 248 210 206
233 239 232 242 255 258 272 295 302 187 160 160 164 149 171 157 133 230 239 208 212 239 217 238 234 266 309 64 259 337 289 273 283 275 132 248 34 351 354 356 1 336 303 270 252 254 261 270 281 252 237 231 226 227
224 226 225 228 241 243 254 283 238 173 156 152 165 146 150 190 229 257 243 177 220 257 212 208 278 243 283 274 283 277 272 33 247 68 155 174 163 11 360 347 348 342 320 290 267 257 255 254 263 257 236 242 234 224
215 211 216 215 224 224 232 239 175 176 178 169 159 145 111 181 46 228 214 184 328 326 333 348 313 296 259 273 257 46 288 237 318 178 161 90 285 346 348 341 338 332 328 313 299 263 242 239 246 251 251 253 231 214
205 202 206 206 208 208 210 195 174 166 154 171 158 351 156 274 244 207 197 219 225 258 315 318 292 319 317 347 236 292 253 353 280 172 75 296 331 331 331 334 330 324 318 313 304 282 233 218 227 246 242 228 210 205
189 189 192 194 194 192 191 183 171 171 169 164 159 217 222 247 276 286 281 283 344 325 328 317 327 341 304 314 229 317 271 253 29 43 298 332 323 318 320 324 321 317 306 297 294 274 208 204 209 224 201 188 185 194
172 177 183 181 179 177 174 168 166 166 194 205 226 274 267 251 284 347 22 94 5 346 324 357 41 351 276 318 272 227 239 268 88 280 306 313 314 313 314 315 316 307 299 295 294 218 182 190 191 176 171 168 170 178
160 162 167 165 163 163 156 148 156 186 246 241 270 289 295 280 274 293 10 10 349 349 357 105 101 219 319 265 256 265 341 332 310 316 320 317 315 311 310 317 318 302 313 314 157 156 163 156 143 135 137 145 139 139
151 148 151 150 149 143 143 144 157 236 266 273 311 346 56 42 43 31 359 1 351 327 297 254 213 201 234 252 273 355 315 319 319 313 318 322 312 305 304 275 302 356 93 119 144 146 139 131 121 91 108 137 131 147
141 141 139 140 141 135 140 136 146 300 309 343 355 17 14 352 11 351 334 326 318 264 274 229 215 223 239 275 318 317 313 309 310 316 320 317 321 158 153 132 121 116 118 127 142 138 134 114 64 162 171 132 131 130
140 135 133 130 118 108 119 126 133 300 352 346 356 348 336 348 331 321 325 323 319 228 204 223 232 214 294 303 306 304 309 315 320 316 23 85 131 130 128 121 119 121 118 116 117 121 119 117 117 118 120 117 118 120
130 129 122 110 75 58 82 53 105 39 347 316 352 357 317 321 339 342 326 340 335 278 262 263 283 300 303 303 305 306 311 315 30 97 105 105 120 120 119 117 114 111 109 108 108 106 103 102 105 107 110 114 119 110
126 129 107 61 45 42 69 22 6 351 346 7 352 328 322 341 348 331 329 333 293 277 280 295 297 297 314 335 62 101 106 111 111 118 118 120 108 110 116 117 116 111 110 109 110 108 104 105 110 112 109 111 109 114
125 113 67 40 33 32 37 356 40 21 25 332 355 6 25 358 337 350 360 315 277 320 326 305 322 59 96 114 117 113 108 107 105 106 110 109 107 109 111 110 109 108 108 108 108 108 107 110 111 113 112 111 107 103
72 63 48 48 29 332 339 33 14 15 0 359 16 33 13 355 345 15 315 297 330 27 78 108 110 107 107 106 104 102 104 109 108 107 109 108 105 105 105 106 104 105 106 106 104 102 104 106 104 110 109 105 107 109
49 25 36 24 31 34 36 351 0 22 12 350 63 22 4 351 12 4 326 323 360 54 94 114 111 106 105 105 106 106 105 102 100 103 107 104 104 102 100 99 100 103 106 105 106 105 103 103 102 102 103 106 111 111
78 39 29 50 35 59 319 355 37 2 346 71 44 16 355 12 30 4 321 344 6 77 104 109 110 112 103 104 101 105 111 102 98 101 107 110 108 105 105 105 104 100 98 103 107 104 106 106 105 102 99 97 102 109
98 217 23 359 173 141 141 319 357 6 48 69 132 16 15 51 12 316 354 26 54 113 115 107 105 109 106 105 104 108 120 122 109 103 105 98 91 94 104 106 103 102 108 102 97 99 100 103 103 105 107 109 110 113
153 163 154 144 186 189 237 209 182 76 88 143 139 44 65 81 271 48 64 77 86 93 110 111 107 105 101 100 101 106 108 110 110 110 107 96 92 98 99 101 102 106 107 102 98 100 106 112 114 107 103 107 138 200
89 125 145 152 153 227 284 28 49 75 129 120 113 105 113 135 153 99 103 122 115 110 108 108 107 103 102 105 110 108 99 101 127 122 110 105 107 102 103 108 108 107 103 98 100 98 115 130 129 91 55 2 351 343
51 105 80 58 45 337 17 97 118 118 115 119 100 109 102 109 118 117 120 110 123 134 123 117 116 113 109 108 108 107 105 98 92 101 112 116 109 103 96 92 97 113 114 121 119 92 326 273 270 324 328 322 307 274
77 70 62 61 36 53 85 98 107 115 120 122 122 115 111 111 113 115 119 116 110 117 121 125 129 133 134 130 120 118 116 110 105 101 110 120 117 104 82 77 72 71 82 48 290 267 258 313 276 286 310 303 292 299
80 83 65 45 66 86 88 84 86 87 101 105 108 121 123 115 85 113 134 125 111 102 102 107 114 124 120 116 113 110 114 115 111 102 80 83 74 51 32 359 359 358 324 344 319 281 301 307 302 290 290 298 310 315
74 64 93 95 90 83 94 81 79 72 95 103 106 114 113 100 83 152 164 147 127 116 110 106 105 106 116 111 100 96 99 112 119 111 107 105 64 38 24 15 12 359 344 331 321 309 296 291 296 302 314 325 334 340